Tracking 19176 objects as of 26-May-2018
HD Live streaming from Space Station
objects crossing your sky now

GONETS M 03

Track GONETS M 03 now!
10-day predictions
GONETS M 03 is classified as:


NORAD ID: 38734
Int'l Code: 2012-041B
Perigee: 1,479.9 km
Apogee: 1,507.0 km
Inclination: 82.5 °
Period: 115.7 minutes
Semi major axis: 7864 km
RCS: 1.8381 m2 (large)
Launch date: July 28, 2012
Source: Commonwealth of Independent States (former USSR) (CIS)
Launch site: PLESETSK MISSILE AND SPACE COMPLEX (PKMTR)

Gonets-M1 is a telecoms satellites.
aabbcc
Your satellite tracking list
Your tracking list is empty




NASA's NSSDC Master Catalog

Two Line Element Set (TLE):
1 38734U 12041B   18145.75998628  .00000020  00000-0  70902-4 0  9990
2 38734  82.4727 108.8029 0017226  28.1906 332.0109 12.44797129264386
Source of the keplerian elements: AFSPC